Hourly Weather Roundup
Issued by NWS Central Illinois

Home | Current Version | Previous Version | Text Only | Print | Product List | Glossary On
Versions: 1 2 3 4 5 6 7 8 9 10 11 12 13 14 15 16 17 18 19 20 21 22 23 24 25 26 27 28 29 30 31 32 33 34 35 36 37 38 39 40 41 42 43 44 45 46 47 48 49 50
000
NZUS43 KILX 200210
HWRILX

AREA WEATHER ROUNDUP
NATIONAL WEATHER SERVICE, LINCOLN IL
900 PM CDT FRI SEP 19 2014


CITY           SKY/WX    TMP DP  RH WIND       PRES   REMARKS
BLOOMINGTON    CLEAR     61  51  69 S9        30.03S
CHAMPAIGN      CLEAR     60  51  72 SE8       30.04S
DECATUR        CLEAR     61  52  72 S5        30.03S
FLORA          CLEAR     59  57  92 CALM      30.04S
GALESBURG      CLEAR     62  56  82 S7        29.97R
JACKSONVILLE   CLEAR     64  59  81 SE3       30.02S
LACON          PTCLDY    62  53  71 CALM      29.98S
LAWRENCEVILLE  CLEAR     61  56  83 E6        30.05R
LITCHFIELD     CLEAR     62  56  83 SE7       30.02S
$$


CITY           SKY/WX    TMP DP  RH WIND       PRES   REMARKS
LINCOLN        CLEAR     62  54  74 CALM      30.00R
MACOMB         CLEAR     61  56  84 S6        30.00S
MATTOON        CLEAR     60  53  77 SE6       30.03S
MT CARMEL AP   CLEAR     63  55  77 CALM      30.05R
OLNEY-NOBLE AP CLEAR     55  55 100 CALM      30.05R
PARIS          CLEAR     55  53  94 CALM      30.06S
PEORIA         CLEAR     66  54  65 S7        29.99F
PONTIAC        CLEAR     61  52  72 S5        30.01S
RANTOUL        CLEAR     59  50  71 S3        30.05R
ROBINSON       CLEAR     59  57  94 CALM      30.06R
SPRINGFIELD    CLEAR     64  54  69 S6        30.02R
TAYLORVILLE    CLEAR     61  54  77 SE6       30.02S
$$

...REGIONAL REPORTS...


CITY           SKY/WX    TMP DP  RH WIND       PRES   REMARKS
CHICAGO O`HARE PTCLDY    65  46  50 S12       29.98F
KANKAKEE       CLEAR     59  50  72 S6        30.03S
MOLINE         CLEAR     67  54  63 S8        29.93S
MOUNT VERNON   CLEAR     57  52  82 CALM      30.04S
PITTSFIELD     CLEAR     64  58  81 CALM      30.01S
QUINCY         CLEAR     67  57  70 S8        29.98S
ROCKFORD       PTCLDY    64  50  60 S14       29.96R
$$


CITY           SKY/WX    TMP DP  RH WIND       PRES   REMARKS
BURLINGTON     CLEAR     67  58  72 S10       29.95R
CEDAR RAPIDS   CLEAR     67  59  75 S15       29.87F
DES MOINES     PTCLDY    72  65  78 S16       29.85S
KIRKSVILLE     CLEAR     66  61  84 S9        29.97R
OTTUMWA        CLEAR     69  61  75 S12       29.90S
ST LOUIS       NOT AVBL
$$


CITY           SKY/WX    TMP DP  RH WIND       PRES   REMARKS
TERRE HAUTE    PTCLDY    57  52  83 E3        30.06R
EVANSVILLE     CLEAR     68  58  70 NE5       30.04S
INDIANAPOLIS   PTCLDY    62  50  64 S5        30.07S
LAFAYETTE      CLEAR     56  51  84 CALM      30.05S
MADISON        PTCLDY    68  53  58 S14G22    29.86F
MILWAUKEE      MOCLDY    66  46  48 S13       29.90F
$$




USA.gov is the U.S. government's official web portal to all federal, state and local government web resources and services.